国际通讯卫星 16 星 (INTELSAT 16 (IS-16))

导读

INTELSAT 16(国际通讯卫星16星)由国际通信卫星组织(ITSO)发射,于北京时间2010年2月12日升空,由美国轨道ATK公司制造,采用STAR-2平台与三轴稳定模式,配备C波段和Ku波段转发器,定位于地球静止轨道,主要提供跨太平洋固定卫星服务,支持电视广播、数据传输与电话通信,为全球多个国家提供稳定通信支撑,截至2026年仍在轨运行。

基本信息
目录编号:
36397
目录名称:
INTELSAT 16
国际标识:
2010-006A
轨道中心:
EARTH
卫星名称:
国际通讯卫星 16 星
卫星全名:
国际通讯卫星 16 星 (INTELSAT 16 (IS-16))
卫星状态:
在轨 (已飞行6055 天)
发射日期:
2010-02-12 UTC
国别 :
(ITSO)
星等 :
--
该卫星已列入 空间交会检测服务 Space Conjunction Data Service (SCDS) ,当前飞行风险评估等级: 无高风险
轨道信息
数据来源 国际轨道数据 AOE轨道数据
星历时间 2026-09-10T11:10:39+0800
1天前
查看轨道信息
2026-09-06T10:00:00+0800
5天前
查看轨道信息
半长轴 42163.215km 42164.953km
偏心率 0.0002429 0.0002348
轨道倾角 0.048° 0.017°
近地点辐角 255.880° 57.588°
升交点赤经 283.593° 127.900°
平近点角 141.181° 113.492°
近地点 35774.836km 35776.915km
远地点 35795.32km 35796.717km
周期 1436.019分钟 1436.108分钟
每日圈数 1.002772 1.00271
详细信息
卫星平台:
STAR-2
平衡模式:
三轴稳定
覆盖范围:
全球
运营商:
国际卫星通信公司
运营商所在国:
美国
制造商(研发单位):
轨道ATK公司
制造商所在国:
美国
使用方式:
暂无
卫星简介
从1965年4月至1984年3月,国际通信卫星组织发射了5代、6种不同性能的卫星共计35颗,除6颗卫星因运载火箭和远地点发动机故障而发射失败外,其余29颗卫星均被送到了预定的静止轨道位置。1984年8月前后,国际通信卫星组织利用部署在大西洋、太平洋、印度洋上空的15颗国际通信卫星,为遍布世界各地170多个国家或地区提供电话、电传、电报、电视和数据传输等电信业务;该卫星仍在工作。
2D轨道图
3D轨道图
轨道高度分析图
轨道倾角分析图
轨道综合分析图
查看轨道综合分析图
与全量物体交会距离演化趋势
与全量物体交会风险概率演化趋势